User: anonymous   Login
Location: Newark
(11.2914°S, 14.4718°E)
Time: 04:47:10
(UTC+00:00)
Language:

Transit 2A - Orbit

View from above orbital plane
View from above orbital plane
View from above satellite
View from above satellite

Ground track
Ground track

The orbit data is extracted from the following two-line orbital elements,

1    45U 60007A   19265.79613253 -.00000056  00000-0  12899-4 0  9996
2    45  66.6968   8.8522 0252352 152.7292 208.7325 14.33649826 84199
Epoch (UTC): 22 September 2019 19:06:25
Eccentricity: 0.0252352
inclination: 66.6968°
perigee height: 599 km
apogee height: 960 km
right ascension of ascending node: 8.8522°
argument of perigee: 152.7292°
revolutions per day: 14.33649826
mean anomaly at epoch: 208.7325°
orbit number at epoch: 8419

The dashed part of the orbit path shows where the satellite is in the earth's shadow,  

DLR